Regional Weather Roundup
Issued by NWS San Diego, CA

Home | Current Version | Previous Version | Text Only | Print | Product List | Glossary On
Versions: 1 2 3 4 5 6 7 8 9 10 11 12 13 14 15 16 17 18 19 20 21 22 23 24 25 26 27 28 29 30 31 32 33 34 35 36 37 38 39 40 41 42 43 44 45 46 47 48 49 50
635
ASUS46 KSGX 231611
RWRSGX

SAN DIEGO HOURLY WEATHER ROUNDUP
NATIONAL WEATHER SERVICE SAN DIEGO CA
800 AM PST MON JAN 23 2017

NOTE: "FAIR" INDICATES FEW OR NO CLOUDS BELOW 12,000 FEET WITH NO
SIGNIFICANT WEATHER AND/OR OBSTRUCTIONS TO VISIBILITY.

CAZ042-043-060-061-PZZ750-775-231700-

GREATER SAN DIEGO AREA

CITY           SKY/WX    TMP DP  RH WIND       PRES   REMARKS
SAN DIEGO AP   LGT RAIN  56  46  69 SW18      29.98R
NATIONAL CITY    N/A     55  49  80 SW10      29.97R
CHULA VISTA      N/A     54  49  85 W7        29.89R
IMPERIAL BEACH PTSUNNY   58  48  69 W14       29.97R
BROWN FIELD    PTSUNNY   54  48  80 W7        29.96S
MONTGOMERY FLD PTSUNNY   53  47  79 SW8       29.95R

$$

NORTH SAN DIEGO COUNTY

CITY           SKY/WX    TMP DP  RH WIND       PRES   REMARKS
CAMP PENDLETON PTSUNNY   55  47  74 SW14      29.93R
OCEANSIDE AP   PTSUNNY   56  48  74 W14       29.92S
OCEANSIDE HBR    N/A     57  49  75 SW5       29.96R
VISTA            N/A     49  45  84 CALM      29.92R
CARLSBAD       PTSUNNY   55  45  68 SW15      29.93R
DEL MAR          N/A     53  50  88 NW3       29.96F
LA JOLLA SCRIP   N/A     56  48  74 SW13      29.95S
FALLBROOK        N/A     47  47 100 SW5       29.93S
ESCONDIDO        N/A     51  49  91 SW3       29.96R
SAN MARCOS       N/A     52  47  82 SW9       29.96R
POWAY            N/A     49  47  92 CALM      29.98R

$$

EAST SAN DIEGO COUNTY

CITY           SKY/WX    TMP DP  RH WIND       PRES   REMARKS
RAMONA         RAIN      47  46  97 W14       29.93S
SANTEE LAKES     N/A     51  48  89 CALM      29.95R
LA MESA          N/A     52  49  92 SW3       29.89S
JAMUL            N/A     48  46  93 CALM      29.97R
DESCANSO N       N/A     40  38  96 SW12      29.87S WCI  32
CAMPO            N/A     44  43  96 SW18G29   29.89R

$$

ORANGE COUNTY AND THE LOS ANGELES BASIN

CITY           SKY/WX    TMP DP  RH WIND       PRES   REMARKS
JOHN WAYNE AP  PTSUNNY   53  47  79 S3        29.91S
LAGUNA BEACH     N/A     54  48  81 N1        29.87S
LAKE FOREST FR   N/A     46  44  91 W2        29.82S
HUNTINGTON BCH   N/A     53  49  86 SW2       29.92F
LOS ALAMITOS   LGT RAIN  52  47  82 W8        29.90S
FULLERTON      LGT RAIN  52  46  80 VRB3      29.89S
LONG BEACH     LGT RAIN  53  41  63 W18G25    29.90S
L.A. AP        LGT RAIN  50  43  77 SW15      29.89R
L.A. DOWNTOWN  RAIN      51  47  86 NW3       29.89R FOG

$$

THE INLAND EMPIRE

CITY           SKY/WX    TMP DP  RH WIND       PRES   REMARKS
CORONA         CLOUDY    49  43  80 VRB7      29.90S
CHINO          PTSUNNY   49  44  83 NW7       29.91R
ONTARIO        PTSUNNY   46  44  93 W7        29.89R
RIVERSIDE AP   NOT AVBL
MORENO VALLEY    N/A     44  44 100 W2        28.02R
MARCH ARB      LGT RAIN  45  45 100 NW12      29.90R
HORSETHIEF CYN   N/A     49  37  65 NW12      29.92S
PERRIS           N/A     45  44  97 CALM      29.95S
HEMET EAST       N/A     43  38  83 CALM      29.96F
FRENCH VALLEY  NOT AVBL
TEMECULA         N/A     48  47  97 SW2       29.97S

$$

SAN BERNARDINO AND RIVERSIDE COUNTY MOUNTAINS

CITY           SKY/WX    TMP DP  RH WIND       PRES   REMARKS
BIG BEAR AP    SNOW      27  23  86 W12G23    29.76R VSB 1/4 WCI  16
ANGELUS OAKS     N/A     28  26  92 SW2       29.78S
PINE COVE        N/A     29  29 100 CALM      29.89R

$$

SOUTHERN DESERT INCLUDING THE COACHELLA VALLEY

CITY           SKY/WX    TMP DP  RH WIND       PRES   REMARKS
PALM SPRINGS   CLOUDY    51  44  77 CALM      29.88S
PALM DESERT      N/A     53  47  79 CALM        N/A
THERMAL        MOSUNNY   53  46  77 VRB3      29.86R
BLYTHE         SUNNY     59  44  57 SW25      29.85F
IMPERIAL AP    SUNNY     58  43  57 CALM      29.90R
EL CENTRO NAS  MOSUNNY   58  41  53 W28       29.92R
YUMA AZ        PTSUNNY   58  51  78 S5        29.90
MEXICALI       MOSUNNY   55  52  88 NE5       29.91

$$

UPPER DESERT

CITY           SKY/WX    TMP DP  RH WIND       PRES   REMARKS
VICTORVILLE AP CLOUDY    39  34  81 CALM      29.83S
HESPERIA         N/A     40  36  87 W15       29.99S WCI  31
PALMDALE       CLOUDY    44  36  73 W10G24    29.82S
LANCASTER      CLOUDY    41  36  82 W15       29.83R
EDWARDS AFB    LGT RAIN  40  38  91 W10       29.82R WCI  33
DAGGETT        LGT RAIN  45  38  76 SW13      29.84R
29 PALMS N     MOSUNNY   45  35  68 W8        29.91R
NEEDLES        MOSUNNY   57  46  66 SW15      29.82R

$$

REGIONAL REPORTS

CITY           SKY/WX    TMP DP  RH WIND       PRES   REMARKS
SANTA BARBARA  MOCLDY    48  46  93 MISG      29.87R
SANDBERG       SNOW      33  31  92 S16       29.78S VSB 1/4 WCI  23
LAS VEGAS NV   MOSUNNY   48  31  51 S17G25    29.73R
PHOENIX AZ     CLOUDY    55  36  48 VRB3      29.89R
TIJUANA        PTSUNNY   54  45  71 SW6       29.99S

$$

OFFSHORE ISLANDS

CITY           SKY/WX    TMP DP  RH WIND       PRES   REMARKS
CATALINA ARPT  CLOUDY    48  42  80 SW20G31   29.88S
SAN CLEMENTE I MOSUNNY   54  45  71 SW17G28   29.93S
SAN NICOLAS IS PTSUNNY   47  45  93 W10G16    29.90R

$$

MARINE AND OFFSHORE BUOY REPORTS

STATION/POSITION SKY/WX   TEMP    WIND        PRES    VSBY  SWELL
                          AIR SEA DIR/SP/G                  HT/PER/DIR
                          (F)     (DEG/KT/KT) (MB)    (MI)  (FT/S/D)
TANNER BANKS               57 58  260/ 21/ 27 1013.0F        13/300/14
S CLEMENTE BASIN           55 60  270/ 19/ 25 1013.8R         8/270/14
SAN NICOLAS IS.               57                N/A          10/290/13
SO. S. ROSA ISLA           54 56  260/ 19/ 23 1011.3R        13/290/12
W. S. BARBARA CH           53 57  260/ 14/ 19 1011.0R        13/290/11
M. S. BARBARA CH                  290/ 17/ 23 1011.8R
S. MONICA BASIN            55 58  250/ 19/ 25 1011.6R         7/260/14
S PEDRO CHANNEL               59                N/A           5/270/13
CMP PENDLETON NS              58                N/A           3/250/17
OCEANSIDE OFFSHR              59                N/A           3/240/10
TORREY PINES OTR              59                N/A           5/280/13
POINT LOMA SOUTH              60                N/A           5/280/14

$$





USA.gov is the U.S. government's official web portal to all federal, state and local government web resources and services.